Location: Remedello Sotto
(45.2500°N, 10.3667°E)
Time: 12:08:18
(UTC+00:00)

Cosmos 44 Rocket - Pass Details

Date: 03 February 2023
Orbit: 646 x 741 km, 65.1° (Epoch: 20 March)

Event Time Altitude Azimuth Distance (km) Brightness Sun altitude
Rises 18:03:46 0° 192° (SSW) 2,948 6.8 -17.1°
Reaches altitude 10° 18:06:08 10° 185° (S) 2,048 5.8 -17.5°
Maximum altitude 18:10:27 39° 117° (ESE) 982 3.6 -18.2°
Enters shadow 18:11:08 37° 95° (E) 1,026 3.6 -18.3°
